Duchifat 3
1 44854U 19089C   25131.80875608  .00037218  00000-0  78790-3 0  9991
2 44854  36.9427 177.7973 0000434  81.5826 278.4979 15.44188483298494
TO-108
1 44881U 19093C   25131.86647827  .00001035  00000-0  12585-3 0  9990
2 44881  97.7928 208.1164 0012974 331.2468  28.8030 14.85542241291819
FloripaSat 1
1 44885U 19093G   25131.83117836  .00005220  00000-0  44496-3 0  9999
2 44885  97.8147 219.3808 0009677 301.5122  58.5154 14.98153889292446
RS-44
1 44909U 19096E   25131.54937279  .00000006  00000-0 -17752-4 0  9992
2 44909  82.5216 246.5634 0217392   3.7648 356.5026 12.79740363250976
UPMSat 2
1 46276U 20061E   25131.75480658  .00065701  00000-0  66693-3 0  9991
2 46276  97.2462 205.2479 0001314 159.8440 200.2872 15.65008371260955
SALSAT
1 46495U 20068K   25131.43566531  .00007709  00000-0  33720-3 0  9990
2 46495  97.8585 108.1306 0009474 262.2857  97.7303 15.22333725254099
CubeSX-Sirius-HSE
1 47951U 21022V   25131.63783877  .00324381  00000-0  13891-2 0  9999
2 47951  97.4158  43.5099 0007726  96.4726 263.7423 15.84262209229254
CubeSX-HSE
1 47952U 21022W   25131.71481605  .00322485  00000-0  13497-2 0  9998
2 47952  97.4166  43.8523 0007142  95.4502 264.7583 15.84756716229284
GRBAlpha
1 47959U 21022AD  25131.82720523  .00284173  00000-0  12632-2 0  9993
2 47959  97.4162  44.0606 0007242  94.4745 265.7352 15.83570580228120
TUBIN
1 48900U 21059X   25131.84547156  .00040829  00000-0  54433-3 0  9995
2 48900  97.6733 298.7972 0002330 337.9166  22.1988 15.58013609215562
LEDSAT
1 49069U 21073D   25131.80464545  .00058581  00000-0  80579-3 0  9998
2 49069  97.3905 212.2218 0011851 179.9613 180.1645 15.57012924206956
CUTE
1 49263U 21088D   25131.17434222  .00014095  00000-0  29151-3 0  9990
2 49263  97.4525 206.5998 0007423 357.8171   2.3044 15.45889604199883
TeikyoSat 4
1 49396U 21102B   25131.54587844  .00001768  00000-0  12031-3 0  9996
2 49396  97.4120 171.0211 0011293 227.6364 132.3909 15.07514516192177
Z-Sat
1 49399U 21102E   25131.87393388  .00004601  00000-0  25490-3 0  9995
2 49399  97.3822 174.2582 0017776 198.3689 161.6903 15.14157960192634
KOSEN 1
1 49402U 21102H   25131.83824107  .00006677  00000-0  31304-3 0  9990
2 49402  97.3730 177.4247 0016438 173.5413 186.6037 15.19885433192929
HO-113
1 50466U 21131B   25131.87126903  .00000575  00000-0  19354-3 0  9999
2 50466  98.5088 221.3674 0003636 205.7902 154.3106 14.40778456177314
IRIS-A
1 51044U 22002BN  25131.68501812  .00300532  34862-4  10478-2 0  9995
2 51044  97.3222 210.8862 0006617 233.7189 126.3473 15.89292862185294
Foresail-1
1 52766U 22057AL  25131.39560008  .00191608  00000-0  89729-3 0  9998
2 52766  97.6040 280.0499 0003026 282.7550  77.3380 15.82709682165262
SNUGLITE 2
1 52899U 22065F   25131.63157870  .00001378  00000-0  27719-3 0  9995
2 52899  98.1645 273.8949 0007331 194.5645 165.5347 14.63141474152259
IO-117
1 53106U 22080B   25051.21822557 -.00000003  00000-0  00000+0 0  9995
2 53106  70.1434 106.3440 0008542  48.0089 312.1297  6.42557744 61200
UmKA 1 (RS40S)
1 57172U 23091G   25131.87950047  .00006018  00000-0  32464-3 0  9996
2 57172  97.5603 187.4143 0016102  76.7869 283.5158 15.15027456103131
CubeBel-2 (EU11S)
1 57175U 23091K   25131.84999685  .00010399  00000-0  50239-3 0  9994
2 57175  97.5600 188.3625 0013874  85.6711 274.6108 15.18745163103191
VERONIKA
1 58261U 23174F   25131.84194242  .00108773  00000-0  11765-2 0  9993
2 58261  97.4142 216.4562 0006707 167.5049 192.6377 15.63214877 84189
ENSO
1 58470U 23185J   25131.85970790  .00049552  00000-0  79650-3 0  9995
2 58470  97.3758 206.1229 0008803 180.0324 180.0930 15.52818595 80574
EIRSAT-1
1 58472U 23185L   25131.86460429  .00088250  00000-0  10068-2 0  9996
2 58472  97.3721 207.5884 0007780 183.1874 176.9336 15.61899082 80670
SONATE-2
1 59112U 24043Q   25131.62139846  .00018507  00000-0  54931-3 0  9998
2 59112  97.5098 262.2471 0011148 212.1285 147.9279 15.34795380 65890
MO-122
1 60209U 24125G   25131.57646127  .00018114  00000-0  53100-3 0  9998
2 60209  97.2824 343.5373 0017773 238.1556 121.7958 15.35089698 47507
GRBBeta
1 60237U 24128C   25131.51984683  .00003541  00000-0  27506-3 0  9997
2 60237  61.9907 180.8596 0049567  50.8387 309.7092 15.02370315 45838
Curium One
1 60242U 24128H   25131.53583065  .00006562  00000-0  46661-3 0  9993
2 60242  61.9805 179.5050 0049452  46.4492 314.0690 15.04657946 45868
ROBUSTA-3A
1 60243U 24128J   25131.52980303  .00006288  00000-0  45353-3 0  9991
2 60243  61.9876 180.2595 0047998  44.2133 316.2778 15.04234104 45858
CatSat
1 60246U 24125J   25131.32705504  .00009575  00000-0  32581-3 0  9998
2 60246  97.2618 342.8290 0042803 196.1613 163.8266 15.29737088 45512
HYPERVIEW-1G (RS66S)
1 61772U 24199AP  25131.86095370  .00019632  00000-0  59065-3 0  9997
2 61772  97.3575   0.7981 0011948 298.5554  61.4486 15.34342462 72559
AO-123
1 61781U 24199AY  25131.89977514  .00006700  00000-0  24750-3 0  9994
2 61781  97.3588   0.0110 0014308 303.1617  56.8250 15.27973105 72504
ZIMSAT 2
1 61783U 24199BA  25131.87164030  .00033349  00000-0  87037-3 0  9991
2 61783  97.3558   1.2229 0011781 295.2564  64.7460 15.38673693 75731
HADES-R (SO-124)
1 62690U 25009CK  25131.47077012  .00032760  00000-0  12293-2 0  9996
2 62690  97.4099 212.4348 0004513 176.2578 183.8695 15.27141185 17706
HYDRA-T
1 62692U 25009CM  25131.46058530  .00037324  00000-0  13905-2 0  9993
2 62692  97.4102 212.4463 0004382 172.5682 187.5622 15.27350566 17706
JINJUSat 1B
1 63210U 25052A   25131.63567744  .00012364  00000-0  57657-3 0  9999
2 63210  97.4459  26.1352 0006403  73.0288 287.1649 15.19989138  8854
NUSHSAT 1
1 63211U 25052B   25131.43672276  .00012208  00000-0  56696-3 0  9994
2 63211  97.4451  25.9360 0006539  77.4169 282.7797 15.20134850  8826
TEVEL2-4
1 63213U 25052D   25131.64244002  .00013397  00000-0  62650-3 0  9998
2 63213  97.4366  26.0599 0005679  89.2180 270.9705 15.19876498  8857
TEVEL2-5
1 63214U 25052E   25131.64272413  .00013380  00000-0  62599-3 0  9990
2 63214  97.4365  26.0595 0005692  89.3579 270.8308 15.19862750  8855
TEVEL2-6
1 63215U 25052F   25131.64410075  .00013276  00000-0  62187-3 0  9996
2 63215  97.4365  26.0585 0005718  89.5935 270.5955 15.19822933  8856
TEVEL2-1
1 63217U 25052H   25131.19023955  .00011832  00000-0  55816-3 0  9992
2 63217  97.4342  25.5772 0005804  99.8511 260.3380 15.19605372  8782
TEVEL2-2
1 63218U 25052J   25131.58559864  .00013775  00000-0  64897-3 0  9996
2 63218  97.4341  25.9663 0005878  99.1651 261.0249 15.19614297  8849
TEVEL2-3
1 63219U 25052K   25131.58563733  .00013588  00000-0  64025-3 0  9992
2 63219  97.4341  25.9661 0005865  99.1047 261.0852 15.19610669  8842
TEVEL2-8
1 63237U 25052AD  25131.43070131  .00010643  00000-0  51931-3 0  9992
2 63237  97.4405  25.7616 0010337 111.5881 248.6456 15.18426138  8819
TEVEL2-9
1 63238U 25052AE  25131.69561114  .00010883  00000-0  53159-3 0  9997
2 63238  97.4408  26.0204 0010455 111.0443 249.1910 15.18384124  8853
TEVEL2-7
1 63239U 25052AF  25131.49919481  .00011859  00000-0  57953-3 0  9990
2 63239  97.4407  25.8233 0010469 111.8954 248.3394 15.18344226  8825
HYDRA-W
1 63490U 25052BL  25131.42911894  .00024872  00000-0  10966-2 0  9993
2 63490  97.4357  25.8811 0014791 111.0905 249.1914 15.21683540  8826
HADES-ICM
1 63492U 25052BN  25131.43673869  .00026718  00000-0  11894-2 0  9995
2 63492  97.4364  25.8741 0014933 114.0885 246.1914 15.21337481  8823
